Location: Biltmore Gardens
(41.6070°N, 83.4666°W)
Time: 14:24:29
(UTC+00:00)

Cosmos 2056 Rocket - Pass Details

Date: 14 July 2020
Orbit: 741 x 801 km, 74.0° (Epoch: 05 August)

Event Time Altitude Azimuth Distance (km) Brightness Sun altitude
Rises 02:35:24 0° 346° (NNW) 3,314 7.9 -13.7°
Reaches altitude 10° 02:37:57 10° 354° (N) 2,384 6.9 -14.1°
Maximum altitude 02:43:05 41° 64° (ENE) 1,145 4.3 -14.7°
Enters shadow 02:46:08 22° 122° (ESE) 1,689 4.7 -15.1°
